TimeMDT,TemperatureF,Dew PointF,Humidity,Sea Level PressureIn,VisibilityMPH,Wind Direction,Wind SpeedMPH,Gust SpeedMPH,PrecipitationIn,Events,Conditions,WindDirDegrees,DateUTC
12:51 AM,30.9,15.1,52,30.08,10.0,ENE,3.5,-,N/A,,Clear,60,2012-10-08 06:51:00
2:51 AM,28.0,15.1,58,30.06,10.0,Calm,Calm,-,N/A,,Clear,0,2012-10-08 08:51:00
3:51 AM,27.0,14.0,58,30.05,10.0,Calm,Calm,-,N/A,,Clear,0,2012-10-08 09:51:00
4:51 AM,26.1,15.1,63,30.05,10.0,Calm,Calm,-,N/A,,Clear,0,2012-10-08 10:51:00
5:51 AM,25.0,14.0,63,30.06,10.0,Calm,Calm,-,N/A,,Clear,0,2012-10-08 11:51:00
6:51 AM,24.1,15.1,69,30.06,10.0,Calm,Calm,-,N/A,,Clear,0,2012-10-08 12:51:00
7:51 AM,23.0,15.1,72,30.10,10.0,Calm,Calm,-,N/A,,Clear,0,2012-10-08 13:51:00
8:51 AM,28.9,18.0,64,30.10,10.0,Calm,Calm,-,N/A,,Clear,0,2012-10-08 14:51:00
9:51 AM,35.1,19.9,54,30.09,10.0,Calm,Calm,-,N/A,,Clear,0,2012-10-08 15:51:00
10:51 AM,42.1,23.0,47,30.06,10.0,South,3.5,-,N/A,,Clear,190,2012-10-08 16:51:00
11:51 AM,46.9,21.0,36,30.04,10.0,SSW,3.5,-,N/A,,Clear,210,2012-10-08 17:51:00
12:51 PM,54.0,16.0,22,30.02,10.0,Calm,Calm,-,N/A,,Clear,0,2012-10-08 18:51:00
1:51 PM,59.0,16.0,19,29.99,10.0,NNE,4.6,-,N/A,,Clear,30,2012-10-08 19:51:00
2:51 PM,60.1,15.1,17,29.96,10.0,Calm,Calm,-,N/A,,Clear,0,2012-10-08 20:51:00
3:51 PM,64.0,10.0,12,29.94,10.0,Variable,6.9,-,N/A,,Clear,0,2012-10-08 21:51:00
4:51 PM,63.0,9.0,12,29.93,10.0,Variable,6.9,-,N/A,,Clear,0,2012-10-08 22:51:00
6:51 PM,57.0,12.0,17,29.97,10.0,Variable,3.5,-,N/A,,Clear,0,2012-10-09 00:51:00
7:51 PM,50.0,12.9,23,30.00,10.0,Calm,Calm,-,N/A,,Clear,0,2012-10-09 01:51:00
8:51 PM,44.1,14.0,30,30.00,10.0,NNE,3.5,-,N/A,,Clear,20,2012-10-09 02:51:00
9:51 PM,41.0,17.1,38,30.02,10.0,NNE,3.5,-,N/A,,Clear,20,2012-10-09 03:51:00
10:51 PM,37.0,18.0,46,30.01,10.0,Calm,Calm,-,N/A,,Clear,0,2012-10-09 04:51:00
11:51 PM,41.0,23.0,49,30.00,10.0,North,3.5,-,N/A,,Clear,360,2012-10-09 05:51:00